Location: ?????????
(41.2393°N, 22.9479°E)
Time: 21:54:06
(UTC+00:00)

Cosmos 304 Rocket - Pass Details

Date: 17 November 2025
Orbit: 668 x 677 km, 74.0° (Epoch: 11 December)

Event Time Altitude Azimuth Distance (km) Brightness Sun altitude
Rises 16:26:09 0° 182° (S) 2,997 7.3 -14.8°
Reaches altitude 10° 16:28:29 10° 176° (S) 2,089 6.4 -15.3°
Maximum altitude 16:32:58 46° 104° (ESE) 906 4.0 -16.1°
Enters shadow 16:35:35 23° 43° (NE) 1,430 5.0 -16.6°
